QPF
0.00 0.00 0.00 0.00 0.00 0.00 0.00 0.00 0.00 0.00 0.00 0.00 0.00 0.00 0.00 0.00 0.00 0.00 0.00 0.00 0.00 0.00 0.00 0.00 0.00 0.00 0.00 0.00 0.00 0.00 0.00 0.00 0.00 0.00 0.00 0.00 0.00 0.00 0.00 0.00 0.00 0.00
0.00 0.00 0.00 0.00 0.00 0.00 0.00 0.00 0.00 0.00 0.00 0.00 0.00 0.00 0.00 0.00 0.00 0.00 0.00 0.00 0.00 0.00 0.00 0.00 0.00 0.00 0.00 0.00 0.00 0.00 0.00 0.00 0.00 0.00 0.00 0.00 0.00 0.00 0.00 0.00 0.00 0.00
0.00 0.00 0.00 0.00 0.00 0.00 0.00 0.00 0.00 0.00 0.00 0.00 0.00 0.00 0.00 0.00 0.00 0.00 0.00 0.00 0.00 0.00 0.00 0.00 0.00 0.00 0.00 0.00 0.00 0.00 0.00 0.00 0.00 0.00 0.00 0.00 0.00 0.00 0.00 0.00 0.00 0.00
0.00 0.00 0.00 0.00 0.00 0.00 0.00 0.00 0.00 0.00 0.00 0.00 0.00 0.00 0.00 0.00 0.00 0.00 0.00 0.00 0.00 0.00 0.00 0.00 0.00 0.00 0.00 0.00 0.00 0.00 0.00 0.00 0.00 0.00 0.00 0.00 0.00 0.00 0.00 0.00 0.00 0.00
0.00 0.00 0.00 0.00 0.00 0.00 0.00 0.00 0.00 0.00 0.00 0.00 0.00 0.00 0.00 0.00 0.00 0.00 0.00 0.00 0.00 0.00 0.00 0.00 0.00 0.00 0.00 0.00 0.00 0.00 0.00 0.00 0.00 0.00 0.00 0.00 0.00 0.00 0.00 0.00 0.00 0.00
0.00 0.00 0.00 0.00 0.00 0.00 0.00 0.00 0.00 0.00 0.00 0.00 0.00 0.00 0.00 0.00 0.00 0.00 0.00 0.00 0.00 0.00 0.00 0.00 0.00 0.00 0.00 0.00 0.00 0.00 0.00 0.00 0.00 0.00 0.00 0.00 0.00 0.00 0.00 0.00 0.00 0.00
0.00 0.00 0.00 0.00 0.00 0.00 0.00 0.00 0.00 0.00 0.00 0.00 0.00 0.00 0.00 0.00 0.00 0.00 0.00 0.00 0.00 0.00 0.00 0.00 0.00 0.00 0.00 0.00 0.00 0.00 0.00 0.00 0.00 0.00 0.00 0.00 0.00 0.00 0.00 0.00 0.00 0.00
0.00 0.00 0.00 0.00 0.00 0.00 0.00 0.00 0.00 0.00 0.00 0.00 0.00 0.00 0.00 0.00 0.00 0.00 0.00 0.00 0.00 0.00 0.00 0.00 0.00 0.00 0.00 0.00 0.00 0.00 0.00 0.00 0.00 0.00 0.00 0.00 0.00 0.00 0.00 0.00 0.00 0.00
0.00 0.00 0.00 0.00 0.00 0.00 0.00 0.00 0.00 0.00 0.00 0.00 0.00 0.00 0.00 0.00 0.00 0.00 0.00 0.00 0.00 0.00 0.00 0.00 0.00 0.00 0.00 0.00 0.00 0.00 0.00 0.00 0.00 0.00 0.00 0.00 0.00 0.00 0.00 0.00 0.00 0.00
0.00 0.00 0.00 0.00 0.00 0.00 0.00 0.00 0.00 0.00 0.00 0.00 0.00 0.00 0.00 0.00 0.00 0.00 0.00 0.00 0.00 0.00 0.00 0.00 0.00 0.00 0.00 0.00 0.00 0.00 0.00 0.00 0.00 0.00 0.00 0.00 0.00 0.00 0.00 0.00 0.00 0.00
0.00 0.00 0.00 0.00 0.00 0.00 0.00 0.00 0.00 0.00 0.00 0.00 0.00 0.00 0.00 0.00 0.00 0.00 0.00 0.00 0.00 0.00 0.00 0.00 0.00 0.00 0.00 0.00 0.00 0.00 0.00 0.00 0.00 0.00 0.00 0.00 0.00 0.00 0.00 0.00 0.00 0.00
0.00 0.00 0.00 0.00 0.00 0.00 0.00 0.00 0.00 0.00 0.01 0.00 0.01 0.00 0.00 0.00 0.00 0.00 0.00 0.00 0.00 0.00 0.00 0.00 0.00 0.00 0.00 0.00 0.00 0.00 0.00 0.00 0.00 0.00 0.00 0.00 0.00 0.00 0.00 0.00 0.00 0.00
0.00 0.00 0.00 0.00 0.00 0.00 0.00 0.00 0.01 0.00 0.00 0.01 0.00 0.00 0.01 0.00 0.00 0.00 0.00 0.00 0.00 0.00 0.00 0.00 0.00 0.00 0.00 0.00 0.00 0.00 0.00 0.00 0.00 0.00 0.00 0.00 0.00 0.00 0.00 0.00 0.00 0.00
0.00 0.00 0.00 0.00 0.00 0.00 0.00 0.00 0.00 0.00 0.00 0.00 0.00 0.00 0.00 0.00 0.00 0.00 0.00 0.00 0.00 0.00 0.00 0.00 0.00 0.00 0.00 0.00 0.00 0.00 0.00 0.00 0.00 0.00 0.00 0.00 0.00 0.00 0.00 0.00 0.00 0.00
0.00 0.00 0.00 0.00 0.00 0.00 0.00 0.00 0.00 0.00 0.00 0.02 0.00 0.00 0.00 0.00 0.00 0.00 0.00 0.00 0.00 0.00 0.00 0.00 0.00 0.00 0.00 0.00 0.00 0.00 0.00 0.00 0.00 0.00 0.00 0.00 0.00 0.00 0.00 0.00 0.00 0.00
0.00 0.00 0.00 0.00 0.00 0.00 0.00 0.00 0.00 0.01 0.01 0.06 0.02 0.00 0.02 0.00 0.00 0.00 0.00 0.00 0.00 0.00 0.00 0.00 0.00 0.00 0.00 0.00 0.00 0.00 0.00 0.00 0.00 0.00 0.00 0.00 0.00 0.00 0.00 0.00 0.00 0.01
0.00 0.00 0.00 0.00 0.00 0.00 0.00 0.00 0.00 0.00 0.00 0.00 0.00 0.00 0.00 0.00 0.00 0.00 0.00 0.00 0.00 0.00 0.01 0.00 0.00 0.00 0.00 0.00 0.00 0.00 0.00 0.00 0.00 0.00 0.00 0.00 0.00 0.00 0.00 0.00 0.00 0.00
0.00 0.00 0.00 0.00 0.00 0.00 0.00 0.00 0.00 0.00 0.00 0.00 0.00 0.00 0.00 0.00 0.00 0.00 0.00 0.00 0.00 0.00 0.00 0.00 0.00 0.00 0.00 0.00 0.00 0.00 0.00 0.00 0.00 0.00 0.00 0.04 0.02 0.00 0.00 0.00 0.00 0.00
0.00 0.00 0.00 0.00 0.00 0.00 0.00 0.00 0.00 0.00 0.00 0.00 0.00 0.00 0.00 0.00 0.00 0.00 0.00 0.00 0.00 0.00 0.00 0.00 0.00 0.00 0.00 0.00 0.00 0.00 0.00 0.00 0.00 0.02 0.23 0.16 0.02 0.00 0.00 0.00 0.00 0.00
0.00 0.00 0.00 0.00 0.00 0.00 0.00 0.00 0.00 0.00 0.00 0.00 0.00 0.00 0.00 0.00 0.00 0.00 0.00 0.00 0.00 0.00 0.00 0.00 0.00 0.00 0.00 0.00 0.00 0.00 0.00 0.00 0.01 0.07 0.02 0.00 0.00 0.00 0.00 0.00 0.00 0.00
0.03 0.01 0.01 0.01 0.00 0.00 0.00 0.00 0.00 0.00 0.00 0.00 0.00 0.00 0.00 0.00 0.00 0.00 0.00 0.00 0.00 0.00 0.00 0.00 0.00 0.00 0.00 0.00 0.00 0.00 0.00 0.00 0.06 0.00 0.00 0.00 0.00 0.00 0.00 0.00 0.00 0.00
0.03 0.04 0.04 0.04 0.03 0.02 0.01 0.00 0.00 0.00 0.00 0.00 0.00 0.00 0.00 0.00 0.00 0.00 0.00 0.00 0.00 0.00 0.00 0.00 0.00 0.00 0.00 0.00 0.00 0.00 0.00 0.00 0.00 0.00 0.00 0.00 0.00 0.00 0.00 0.00 0.00 0.00
0.10 0.08 0.08 0.04 0.03 0.02 0.01 0.00 0.01 0.01 0.01 0.00 0.00 0.00 0.00 0.00 0.00 0.00 0.00 0.00 0.00 0.00 0.00 0.00 0.00 0.00 0.00 0.00 0.00 0.00 0.00 0.00 0.00 0.00 0.00 0.00 0.00 0.00 0.00 0.00 0.00 0.00
0.05 0.06 0.06 0.11 0.10 0.07 0.05 0.04 0.03 0.02 0.01 0.01 0.00 0.00 0.00 0.00 0.00 0.00 0.00 0.00 0.00 0.00 0.00 0.00 0.00 0.00 0.00 0.00 0.00 0.00 0.00 0.00 0.00 0.00 0.00 0.00 0.00 0.00 0.00 0.00 0.00 0.00
0.16 0.04 0.02 0.06 0.72 1.46 1.02 0.72 0.08 0.29 0.07 0.02 0.03 0.03 0.03 0.04 0.03 0.03 0.03 0.03 0.02 0.01 0.00 0.00 0.00 0.00 0.00 0.00 0.00 0.00 0.00 0.00 0.00 0.00 0.00 0.00 0.00 0.00 0.00 0.00 0.00 0.00
0.03 0.02 0.03 0.02 0.52 1.03 0.29 0.35 0.33 0.21 0.08 0.04 0.03 0.03 0.04 0.05 0.05 0.05 0.04 0.04 0.03 0.03 0.02 0.02 0.02 0.02 0.01 0.01 0.01 0.01 0.00 0.00 0.00 0.00 0.00 0.00 0.00 0.00 0.00 0.00 0.00 0.00
MSLP
1019.01 1019.16 1019.48 1019.60 1019.72 1019.77 1019.97 1020.21 1020.21 1020.28 1020.28 1020.24 1020.45 1020.45 1020.45 1020.28 1020.21 1020.24 1020.24 1020.28 1020.28 1020.36 1020.33 1020.33 1020.24 1020.33 1020.28 1020.28 1020.28 1020.33 1020.41 1020.41 1020.45 1020.33 1020.41 1020.45 1020.48 1020.53 1020.57 1020.45 1020.36 1020.28
1018.89 1018.97 1019.16 1019.36 1019.57 1019.60 1019.72 1019.72 1019.92 1020.04 1020.12 1020.12 1020.09 1020.09 1020.09 1020.09 1020.12 1020.12 1020.21 1020.28 1020.24 1020.28 1020.24 1020.28 1020.28 1020.28 1020.28 1020.33 1020.36 1020.45 1020.48 1020.45 1020.60 1020.21 1020.48 1020.53 1020.45 1020.45 1020.45 1020.36 1020.36 1020.16
1018.77 1018.89 1019.09 1019.41 1019.53 1019.60 1019.60 1019.60 1019.68 1019.80 1019.92 1019.89 1019.89 1019.92 1020.01 1019.89 1020.04 1020.01 1020.04 1020.16 1020.28 1020.24 1020.28 1020.24 1020.28 1020.33 1020.28 1020.28 1020.36 1020.48 1020.53 1020.57 1020.68 1020.41 1020.53 1020.57 1020.41 1020.48 1020.36 1020.33 1020.28 1020.24
1018.57 1018.60 1018.80 1018.97 1019.09 1019.33 1019.36 1019.60 1019.72 1019.77 1019.77 1019.97 1019.92 1019.77 1019.77 1019.77 1019.84 1019.97 1020.04 1020.04 1020.21 1020.24 1020.21 1020.21 1020.24 1020.24 1020.28 1020.33 1020.41 1020.57 1020.53 1020.57 1020.48 1020.41 1020.53 1020.48 1020.41 1020.41 1020.36 1020.28 1020.33 1020.21
1018.45 1018.48 1018.53 1018.65 1018.77 1018.89 1019.12 1019.45 1019.65 1019.72 1019.80 1019.77 1019.68 1019.65 1019.72 1019.80 1019.89 1020.01 1020.09 1020.09 1020.12 1020.24 1020.24 1020.28 1020.21 1020.24 1020.24 1020.33 1020.41 1020.60 1020.57 1020.60 1020.48 1020.48 1020.65 1020.68 1020.41 1020.36 1020.28 1020.33 1020.45 1020.53
1018.24 1018.24 1018.28 1018.45 1018.57 1018.80 1019.09 1019.24 1019.33 1019.41 1019.57 1019.68 1019.68 1019.57 1019.60 1019.65 1019.77 1019.89 1020.01 1020.12 1020.12 1020.16 1020.24 1020.24 1020.28 1020.24 1020.28 1020.41 1020.48 1020.60 1020.60 1020.72 1020.60 1020.60 1020.68 1020.68 1020.48 1020.24 1020.24 1020.28 1020.45 1020.60
1018.24 1018.24 1018.28 1018.24 1018.41 1018.57 1018.84 1018.97 1019.04 1019.12 1019.24 1019.24 1019.33 1019.53 1019.41 1019.65 1019.68 1019.72 1019.77 1019.89 1020.01 1020.16 1020.21 1020.28 1020.33 1020.33 1020.24 1020.41 1020.57 1020.68 1020.65 1020.60 1020.60 1020.65 1020.80 1020.72 1020.57 1020.53 1020.33 1020.36 1020.45 1020.53
1018.04 1018.01 1018.09 1018.12 1018.33 1018.45 1018.68 1018.77 1018.84 1018.92 1018.92 1019.04 1019.28 1019.21 1019.21 1019.41 1019.48 1019.53 1019.57 1019.68 1019.92 1020.04 1020.09 1020.16 1020.21 1020.24 1020.24 1020.41 1020.65 1020.72 1020.68 1020.57 1020.60 1020.60 1020.68 1020.72 1020.60 1020.68 1020.48 1020.41 1020.45 1020.57
1017.80 1017.97 1018.01 1018.12 1018.24 1018.33 1018.48 1018.53 1018.57 1018.65 1018.65 1018.92 1019.04 1019.04 1018.97 1019.04 1019.21 1019.33 1019.45 1019.57 1019.72 1019.84 1019.97 1020.09 1020.12 1020.21 1020.16 1020.28 1020.48 1020.60 1020.65 1020.60 1020.45 1020.48 1020.60 1020.68 1020.72 1020.65 1020.53 1020.36 1020.53 1020.57
1017.72 1017.77 1017.92 1018.04 1018.21 1018.16 1018.28 1018.24 1018.28 1018.36 1018.41 1018.60 1018.68 1018.77 1018.97 1018.89 1018.89 1019.09 1019.24 1019.45 1019.65 1019.77 1019.84 1019.92 1019.97 1020.04 1020.04 1020.09 1020.21 1020.33 1020.45 1020.45 1020.36 1020.41 1020.41 1020.45 1020.53 1020.53 1020.48 1020.48 1020.53 1020.60
1017.60 1017.65 1017.84 1017.97 1018.01 1017.97 1018.04 1018.01 1018.04 1018.12 1018.21 1018.36 1018.48 1018.65 1018.65 1018.77 1018.84 1018.84 1019.16 1019.36 1019.57 1019.65 1019.77 1019.84 1019.84 1019.80 1019.92 1019.97 1019.97 1019.92 1020.04 1020.12 1020.21 1020.24 1020.28 1020.28 1020.33 1020.33 1020.28 1020.36 1020.41 1020.48
1017.36 1017.45 1017.60 1017.72 1017.77 1017.77 1017.77 1017.72 1017.72 1017.80 1017.97 1018.09 1018.12 1018.45 1018.53 1018.57 1018.72 1018.89 1019.04 1019.28 1019.28 1019.33 1019.45 1019.57 1019.57 1019.60 1019.68 1019.77 1019.77 1019.77 1019.84 1019.89 1019.92 1020.01 1020.09 1020.09 1020.12 1020.12 1020.09 1020.09 1020.21 1020.21
1017.12 1017.16 1017.21 1017.33 1017.45 1017.48 1017.36 1017.41 1017.48 1017.53 1017.68 1017.92 1017.92 1018.04 1018.28 1018.57 1018.57 1018.72 1018.77 1018.92 1019.04 1019.09 1019.24 1019.33 1019.36 1019.36 1019.45 1019.53 1019.60 1019.65 1019.77 1019.84 1019.84 1019.84 1019.92 1019.92 1019.92 1019.89 1019.80 1019.77 1019.80 1019.80
1016.68 1016.65 1016.80 1016.89 1016.97 1017.09 1017.16 1017.12 1017.21 1017.33 1017.45 1017.48 1017.68 1017.92 1018.04 1018.12 1018.36 1018.53 1018.53 1018.57 1018.68 1018.80 1018.84 1018.92 1019.09 1019.24 1019.28 1019.33 1019.41 1019.48 1019.60 1019.77 1019.72 1019.80 1019.84 1019.84 1019.77 1019.68 1019.60 1019.60 1019.57 1019.53
1016.12 1016.28 1016.41 1016.60 1016.77 1016.92 1017.09 1017.16 1017.12 1017.21 1017.28 1017.57 1017.68 1017.65 1017.60 1017.68 1017.77 1018.01 1018.28 1018.48 1018.45 1018.53 1018.65 1018.72 1018.92 1019.09 1019.09 1019.21 1019.36 1019.45 1019.45 1019.60 1019.65 1019.72 1019.77 1019.89 1019.84 1019.72 1019.57 1019.45 1019.36 1019.24
1015.80 1016.01 1016.24 1016.45 1016.65 1016.77 1016.84 1016.92 1017.01 1017.09 1017.53 1018.09 1017.80 1017.45 1017.65 1017.53 1017.60 1017.68 1017.92 1018.16 1018.45 1018.57 1018.57 1018.68 1018.77 1018.77 1018.80 1018.84 1018.92 1019.16 1019.36 1019.41 1019.53 1019.60 1019.68 1019.80 1019.89 1019.84 1019.65 1019.41 1019.24 1019.16
1015.72 1015.92 1016.04 1016.28 1016.28 1016.36 1016.45 1016.68 1016.77 1016.80 1016.89 1017.04 1017.04 1017.16 1017.33 1017.36 1017.45 1017.68 1017.84 1017.92 1018.09 1018.45 1018.68 1018.68 1018.77 1018.89 1018.92 1018.97 1019.01 1019.04 1019.09 1019.28 1019.45 1019.60 1019.65 1019.77 1019.84 1019.84 1019.77 1019.57 1019.48 1019.24
1015.65 1015.80 1016.01 1016.09 1016.12 1016.21 1016.28 1016.36 1016.48 1016.68 1016.84 1016.92 1017.04 1017.21 1017.21 1017.16 1017.41 1017.53 1017.65 1017.72 1017.84 1018.28 1018.53 1018.72 1018.89 1019.01 1018.97 1018.92 1018.97 1018.97 1019.01 1019.12 1019.24 1019.48 1019.68 1020.01 1019.92 1019.77 1019.68 1019.60 1019.48 1019.33
1015.41 1015.65 1015.80 1015.92 1016.01 1016.12 1016.21 1016.28 1016.36 1016.57 1016.77 1016.97 1017.09 1016.97 1017.09 1017.33 1017.36 1017.48 1017.72 1017.72 1017.89 1018.24 1018.57 1018.80 1018.97 1019.12 1019.04 1018.92 1018.92 1018.92 1018.97 1019.01 1019.21 1019.45 1019.60 1019.80 1019.97 1019.72 1019.57 1019.48 1019.45 1019.53
1015.53 1015.60 1015.68 1015.77 1015.97 1016.12 1016.24 1016.41 1016.53 1016.72 1016.77 1016.80 1016.97 1017.01 1017.09 1017.24 1017.33 1017.53 1017.60 1017.77 1017.92 1018.16 1018.53 1018.80 1018.92 1019.09 1019.04 1018.97 1018.89 1018.84 1018.89 1018.97 1019.12 1019.21 1019.33 1019.48 1019.57 1019.48 1019.53 1019.53 1019.57 1019.65
1015.65 1015.72 1015.77 1015.89 1015.92 1016.12 1016.36 1016.60 1016.77 1016.89 1017.09 1017.16 1017.09 1017.04 1017.12 1017.28 1017.45 1017.65 1017.77 1017.84 1018.01 1018.21 1018.48 1018.89 1019.09 1019.21 1019.12 1019.04 1018.92 1018.80 1018.80 1018.92 1019.01 1019.24 1019.41 1019.53 1019.53 1019.45 1019.45 1019.53 1019.65 1019.77
1015.80 1015.89 1015.77 1015.80 1016.04 1016.33 1016.65 1016.84 1016.92 1017.01 1017.28 1017.41 1017.41 1017.41 1017.33 1017.28 1017.48 1017.65 1017.89 1018.09 1018.21 1018.28 1018.48 1018.77 1019.04 1019.21 1019.16 1019.09 1018.97 1018.80 1018.77 1018.80 1018.92 1019.24 1019.41 1019.53 1019.53 1019.45 1019.45 1019.53 1019.60 1019.72
1016.01 1016.21 1016.33 1016.28 1016.41 1016.65 1016.89 1017.01 1017.04 1017.12 1017.36 1017.45 1017.60 1017.65 1017.65 1017.65 1017.72 1017.89 1018.09 1018.28 1018.45 1018.60 1018.72 1018.97 1019.09 1019.21 1019.12 1019.04 1018.97 1018.89 1018.89 1018.77 1018.89 1019.12 1019.33 1019.48 1019.60 1019.53 1019.53 1019.53 1019.60 1019.68
1015.92 1016.16 1016.53 1016.68 1016.84 1016.97 1017.01 1017.01 1016.92 1016.97 1017.28 1017.36 1017.60 1017.80 1017.92 1017.92 1017.92 1018.16 1018.41 1018.57 1018.72 1018.89 1018.92 1019.04 1019.21 1019.24 1019.12 1018.97 1018.92 1018.89 1018.89 1018.80 1018.84 1019.09 1019.45 1019.57 1019.77 1019.72 1019.65 1019.68 1019.65 1019.65
1015.97 1016.04 1016.16 1016.45 1017.01 1017.24 1016.80 1016.60 1016.45 1016.72 1016.84 1017.01 1017.36 1017.65 1017.97 1018.04 1018.16 1018.41 1018.72 1018.84 1018.92 1019.01 1018.97 1019.04 1019.12 1019.12 1019.04 1018.89 1018.80 1018.77 1018.84 1018.65 1018.68 1018.92 1019.36 1019.65 1019.77 1019.97 1019.97 1020.01 1020.01 1019.92
1016.24 1016.28 1016.21 1016.33 1016.65 1016.65 1016.41 1016.24 1016.24 1016.53 1016.92 1017.36 1017.57 1017.60 1017.97 1018.16 1018.33 1018.48 1018.72 1019.04 1019.12 1019.16 1019.21 1019.21 1019.16 1019.21 1019.12 1018.89 1018.77 1018.60 1018.57 1018.57 1018.48 1018.80 1019.28 1019.60 1019.72 1019.84 1020.12 1020.21 1020.21 1020.28
Thickness
5777 5776 5775 5774 5773 5773 5773 5772 5772 5772 5773 5774 5774 5773 5775 5776 5777 5778 5778 5779 5779 5780 5780 5781 5782 5783 5783 5784 5785 5786 5787 5787 5787 5788 5788 5788 5788 5788 5788 5789 5790 5790
5778 5778 5776 5775 5775 5775 5775 5775 5775 5775 5774 5775 5777 5777 5778 5778 5778 5779 5779 5780 5780 5781 5782 5782 5783 5784 5784 5785 5786 5786 5787 5787 5787 5788 5788 5788 5788 5788 5788 5789 5789 5790
5778 5778 5777 5776 5776 5775 5776 5777 5777 5776 5777 5777 5778 5778 5780 5780 5780 5780 5780 5780 5781 5782 5782 5783 5783 5784 5785 5786 5786 5786 5786 5786 5786 5787 5787 5787 5788 5787 5788 5789 5789 5790
5780 5779 5779 5778 5778 5778 5778 5777 5776 5777 5777 5777 5778 5780 5780 5781 5781 5781 5781 5781 5782 5782 5783 5784 5784 5784 5785 5785 5785 5785 5786 5786 5786 5787 5786 5786 5788 5788 5788 5789 5788 5789
5781 5781 5781 5780 5780 5779 5778 5778 5777 5777 5778 5777 5779 5780 5781 5781 5781 5781 5781 5781 5782 5782 5783 5783 5784 5785 5785 5785 5785 5784 5784 5784 5785 5786 5785 5785 5787 5787 5788 5788 5786 5787
5782 5782 5782 5782 5782 5780 5779 5779 5779 5779 5779 5778 5780 5781 5781 5782 5782 5781 5781 5781 5782 5782 5782 5783 5783 5784 5784 5784 5783 5782 5783 5783 5783 5784 5783 5784 5785 5787 5787 5787 5785 5785
5782 5783 5784 5783 5783 5782 5780 5780 5780 5780 5780 5780 5781 5781 5782 5782 5782 5782 5782 5782 5782 5781 5782 5782 5782 5783 5783 5783 5782 5781 5782 5783 5783 5783 5782 5783 5784 5784 5785 5785 5784 5784
5782 5783 5784 5784 5784 5783 5782 5781 5781 5781 5782 5782 5781 5782 5783 5782 5782 5783 5783 5783 5782 5781 5782 5782 5782 5782 5783 5782 5780 5780 5781 5782 5782 5782 5781 5781 5782 5782 5783 5783 5783 5782
5781 5783 5783 5784 5784 5783 5783 5783 5783 5783 5783 5783 5782 5783 5783 5783 5784 5783 5783 5783 5782 5782 5782 5782 5782 5782 5782 5781 5780 5779 5779 5780 5781 5781 5781 5780 5780 5780 5782 5782 5781 5781
5781 5781 5782 5782 5783 5783 5784 5784 5784 5784 5784 5784 5784 5784 5784 5784 5785 5785 5784 5783 5782 5782 5781 5781 5781 5782 5782 5781 5781 5780 5780 5780 5780 5781 5780 5780 5779 5780 5780 5780 5780 5780
5780 5780 5780 5781 5781 5782 5784 5785 5785 5785 5785 5785 5785 5784 5784 5785 5784 5784 5783 5782 5782 5782 5781 5781 5781 5782 5781 5781 5782 5782 5781 5780 5780 5780 5779 5780 5779 5779 5780 5780 5779 5779
5779 5780 5780 5780 5781 5782 5783 5784 5786 5786 5786 5785 5785 5784 5784 5784 5783 5783 5783 5781 5781 5782 5781 5781 5782 5782 5781 5781 5782 5782 5781 5780 5781 5780 5779 5779 5780 5780 5780 5780 5780 5780
5780 5780 5781 5781 5781 5782 5783 5785 5786 5786 5786 5785 5785 5785 5783 5783 5783 5783 5782 5782 5781 5781 5781 5781 5781 5781 5781 5781 5780 5781 5780 5780 5780 5780 5779 5779 5779 5780 5781 5780 5781 5781
5783 5783 5782 5782 5782 5782 5783 5785 5786 5786 5786 5786 5785 5785 5784 5784 5784 5783 5783 5783 5782 5782 5782 5782 5781 5780 5780 5779 5779 5779 5779 5778 5779 5778 5778 5778 5779 5779 5781 5781 5782 5783
5786 5784 5783 5783 5782 5782 5782 5783 5784 5785 5785 5783 5783 5785 5785 5785 5786 5785 5783 5783 5782 5782 5782 5782 5781 5780 5780 5779 5778 5778 5777 5777 5777 5777 5777 5777 5777 5778 5780 5781 5782 5783
5786 5784 5783 5783 5782 5782 5782 5782 5782 5783 5782 5780 5782 5784 5784 5784 5785 5785 5784 5782 5781 5781 5780 5781 5781 5780 5780 5780 5779 5778 5777 5776 5775 5775 5775 5775 5775 5776 5777 5780 5782 5782
5783 5782 5782 5781 5782 5782 5783 5782 5782 5783 5782 5781 5781 5782 5782 5782 5783 5782 5782 5782 5781 5779 5778 5779 5778 5777 5777 5777 5778 5777 5776 5776 5774 5773 5773 5773 5773 5774 5774 5776 5778 5779
5780 5780 5779 5780 5781 5782 5782 5782 5782 5781 5781 5779 5779 5779 5779 5781 5781 5780 5779 5780 5779 5777 5775 5774 5773 5773 5774 5775 5775 5775 5775 5775 5773 5772 5772 5770 5771 5772 5773 5774 5775 5776
5778 5777 5777 5778 5779 5779 5779 5780 5779 5778 5778 5777 5777 5778 5778 5778 5778 5778 5777 5777 5777 5775 5772 5770 5769 5769 5771 5771 5772 5773 5773 5772 5772 5771 5771 5769 5769 5770 5771 5771 5772 5772
5774 5774 5774 5775 5776 5776 5775 5775 5774 5774 5774 5774 5774 5775 5776 5776 5775 5774 5774 5774 5774 5772 5770 5768 5767 5767 5768 5768 5769 5770 5770 5770 5770 5770 5770 5769 5768 5768 5769 5768 5768 5768
5769 5770 5771 5773 5774 5773 5771 5770 5769 5769 5769 5769 5770 5771 5772 5773 5772 5771 5771 5770 5770 5769 5767 5765 5764 5764 5764 5765 5766 5767 5767 5768 5768 5766 5766 5766 5766 5767 5766 5765 5765 5764
5764 5765 5767 5769 5769 5767 5764 5763 5763 5764 5763 5763 5764 5765 5766 5768 5767 5766 5765 5765 5765 5765 5764 5762 5761 5760 5760 5762 5763 5764 5764 5766 5766 5764 5762 5762 5763 5764 5763 5762 5762 5760
5759 5759 5760 5761 5760 5758 5756 5757 5759 5760 5760 5760 5760 5760 5760 5761 5761 5761 5759 5759 5759 5759 5758 5758 5757 5756 5756 5757 5759 5760 5761 5762 5762 5761 5760 5758 5758 5759 5760 5759 5758 5758
5757 5756 5755 5754 5752 5750 5752 5754 5757 5757 5758 5758 5757 5756 5755 5755 5756 5755 5754 5753 5753 5752 5753 5753 5752 5752 5753 5755 5756 5756 5757 5758 5759 5757 5756 5754 5754 5754 5754 5754 5754 5753
5752 5753 5753 5750 5747 5747 5751 5755 5758 5758 5757 5755 5754 5752 5751 5750 5751 5751 5749 5748 5748 5748 5748 5748 5748 5749 5750 5751 5753 5753 5754 5755 5756 5754 5752 5750 5749 5748 5748 5748 5747 5746
5746 5747 5748 5748 5746 5747 5751 5754 5755 5755 5752 5749 5748 5749 5748 5747 5747 5746 5745 5744 5743 5743 5743 5744 5744 5745 5746 5748 5750 5751 5752 5753 5753 5752 5749 5747 5746 5745 5743 5741 5741 5741